This is the latest recevied weather packets stored in our database for station/object W1REE. If no packets are shown the sender has not sent any weather packets the latest 10 day(s).
| Time | Temp. | Humidity | Pressure | Rain* | Wind** | Luminosity | Snow |
|---|---|---|---|---|---|---|---|
| 1778022625 | 2.78° C | 96% | 1012.9 hPa | 1.78 mm | - | 34 W/m² | - |
| 1778022322 | 2.78° C | 96% | 1012.9 hPa | 1.78 mm | - | 43 W/m² | - |
| 1778022018 | 2.78° C | 96% | 1012.8 hPa | 0 mm | - | 37 W/m² | - |
| 1778021715 | 2.78° C | 96% | 1012.5 hPa | 0 mm | - | 44 W/m² | - |
| 1778021411 | 2.78° C | 96% | 1012.7 hPa | 0 mm | - | 54 W/m² | - |
| 1778021108 | 2.78° C | 96% | 1012.5 hPa | 0 mm | - | 46 W/m² | - |
| 1778020805 | 2.78° C | 96% | 1012.4 hPa | 0 mm | - | 69 W/m² | - |
| 1778020502 | 2.78° C | 96% | 1012.7 hPa | 0 mm | - | 57 W/m² | - |
| 1778020198 | 3.33° C | 96% | 1012.5 hPa | 0 mm | - | 73 W/m² | - |
| 1778019895 | 2.78° C | 96% | 1012.7 hPa | 0 mm | - | 70 W/m² | - |
| 1778019590 | 2.78° C | 96% | 1012.5 hPa | 0 mm | - | 57 W/m² | - |
| 1778019288 | 2.78° C | 96% | 1012.5 hPa | 0 mm | - | 84 W/m² | - |
| 1778018985 | 2.78° C | 96% | 1012.5 hPa | 0 mm | - | 68 W/m² | - |
| 1778018682 | 2.78° C | 96% | 1012.8 hPa | 0 mm | - | 77 W/m² | - |
| 1778018380 | 3.33° C | 96% | 1012.7 hPa | 0 mm | - | 114 W/m² | - |
| 1778018078 | 3.33° C | 96% | 1013 hPa | 0 mm | - | 100 W/m² | - |
| 1778017775 | 3.33° C | 96% | 1013.1 hPa | 1.27 mm | - | 105 W/m² | - |
| 1778017473 | 3.33° C | 96% | 1013.1 hPa | 1.27 mm | - | 109 W/m² | - |
| 1778017170 | 3.33° C | 96% | 1013.3 hPa | 0 mm | - | 105 W/m² | - |
| 1778016868 | 3.33° C | 96% | 1013 hPa | 0 mm | - | 86 W/m² | - |
| 1778016563 | 3.33° C | 96% | 1013.1 hPa | 0 mm | - | 101 W/m² | - |
| 1778016261 | 3.33° C | 96% | 1013.1 hPa | 0 mm | - | 133 W/m² | - |
| 1778015957 | 3.33° C | 95% | 1013.3 hPa | 0 mm | - | 103 W/m² | - |
| 1778015655 | 3.33° C | 96% | 1013.4 hPa | 0 mm | - | 101 W/m² | - |
| 1778015351 | 3.33° C | 95% | 1013.5 hPa | 0 mm | - | 62 W/m² | - |
* Rain latest hour (hover to see other rain measurements)
** Current wind speed in m/s (hover to see current wind gust speed)